| time (UTC) | temp C | wind direction | speed KPH | gust KPH | rain 1hr cm | rain 24hr cm | rain mn cm | humidity % | barometer mb |
| 20260504081520 | 6 | 13 | 0.0 | 3.2 | 0.00 | 0.00 | 0.00 | 81 | 1015.4 |
| 20260504081019 | 6 | 13 | 0.0 | 3.2 | 0.00 | 0.00 | 0.00 | 80 | 1015.3 |
| 20260504080521 | 6 | 13 | 0.0 | 0.0 | 0.00 | 0.00 | 0.00 | 82 | 1015.3 |
| 20260504050532 | 3 | 13 | 0.0 | 3.2 | 0.00 | 0.00 | 0.00 | 82 | 1016.0 |
| 20260504045514 | 3 | 13 | 0.0 | 1.6 | 0.00 | 0.00 | 0.00 | 80 | 1016.1 |
| 20260504045014 | 3 | 13 | 0.0 | 1.6 | 0.00 | 0.00 | 0.00 | 81 | 1016.0 |
| 20260504044521 | 3 | 13 | 0.0 | 0.0 | 0.00 | 0.00 | 0.00 | 79 | 1016.1 |
| 20260504044016 | 3 | 13 | 0.0 | 3.2 | 0.00 | 0.00 | 0.00 | 78 | 1016.2 |
| 20260504043012 | 3 | 13 | 0.0 | 1.6 | 0.00 | 0.00 | 0.00 | 78 | 1016.1 |
| 20260504042513 | 2 | 0 | 1.6 | 3.2 | 0.00 | 0.00 | 0.00 | 78 | 1016.1 |
| 20260504041513 | 2 | 0 | 0.0 | 3.2 | 0.00 | 0.00 | 0.00 | 79 | 1016.1 |
| 20260504041008 | 2 | 0 | 0.0 | 3.2 | 0.00 | 0.00 | 0.00 | 78 | 1016.2 |
| 20260504040506 | 2 | 0 | 0.0 | 3.2 | 0.00 | 0.00 | 0.00 | 78 | 1016.2 |
| 20260504040005 | 3 | 0 | 1.6 | 1.6 | 0.00 | 0.00 | 0.00 | 77 | 1016.0 |
| 20260504035005 | 3 | 0 | 0.0 | 1.6 | 0.00 | 0.00 | 0.00 | 76 | 1016.1 |
| 20260504034002 | 3 | 0 | 0.0 | 3.2 | 0.00 | 0.00 | 0.00 | 77 | 1016.1 |
| 20260504033502 | 3 | 0 | 0.0 | 3.2 | 0.00 | 0.00 | 0.00 | 76 | 1016.1 |
| 20260504033005 | 3 | 0 | 0.0 | 3.2 | 0.00 | 0.00 | 0.00 | 76 | 1016.0 |
| 20260504032502 | 3 | 0 | 0.0 | 3.2 | 0.00 | 0.00 | 0.00 | 74 | 1015.9 |
| 20260504031957 | 3 | 0 | 1.6 | 1.6 | 0.00 | 0.00 | 0.00 | 75 | 1015.9 |
| 20260504031449 | 3 | 37 | 0.0 | 1.6 | 0.00 | 0.00 | 0.00 | 74 | 1015.9 |
| 20260504030947 | 3 | 35 | 0.0 | 1.6 | 0.00 | 0.00 | 0.00 | 74 | 1015.9 |
| 20260504025941 | 3 | 47 | 0.0 | 3.2 | 0.00 | 0.00 | 0.00 | 74 | 1015.8 |
| 20260504025441 | 3 | 47 | 0.0 | 3.2 | 0.00 | 0.00 | 0.00 | 74 | 1015.9 |
| 20260504024941 | 3 | 47 | 0.0 | 3.2 | 0.00 | 0.00 | 0.00 | 74 | 1015.9 |
| 20260504024435 | 3 | 47 | 0.0 | 3.2 | 0.00 | 0.00 | 0.00 | 73 | 1016.0 |
| 20260504023935 | 4 | 47 | 0.0 | 3.2 | 0.00 | 0.00 | 0.00 | 72 | 1015.9 |
| 20260504023430 | 4 | 47 | 0.0 | 0.0 | 0.00 | 0.00 | 0.00 | 71 | 1015.9 |
| 20260504022930 | 5 | 47 | 0.0 | 1.6 | 0.00 | 0.00 | 0.00 | 68 | 1015.8 |
| 20260504022431 | 5 | 47 | 0.0 | 1.6 | 0.00 | 0.00 | 0.00 | 70 | 1015.8 |
| 20260504021420 | 5 | 47 | 0.0 | 1.6 | 0.00 | 0.00 | 0.00 | 70 | 1015.7 |
| 20260504020919 | 5 | 47 | 0.0 | 3.2 | 0.00 | 0.00 | 0.00 | 67 | 1015.7 |
| 20260504015920 | 5 | 47 | 0.0 | 3.2 | 0.00 | 0.00 | 0.00 | 68 | 1015.6 |
| 20260504014918 | 6 | 47 | 0.0 | 0.0 | 0.00 | 0.00 | 0.00 | 67 | 1015.4 |
| 20260504014418 | 6 | 47 | 0.0 | 1.6 | 0.00 | 0.00 | 0.00 | 66 | 1015.4 |
| 20260504013919 | 6 | 47 | 0.0 | 1.6 | 0.00 | 0.00 | 0.00 | 65 | 1015.3 |
| 20260504013419 | 6 | 47 | 0.0 | 0.0 | 0.00 | 0.00 | 0.00 | 60 | 1015.2 |
| 20260504012920 | 6 | 47 | 0.0 | 0.0 | 0.00 | 0.00 | 0.00 | 62 | 1015.1 |
| 20260504012418 | 7 | 47 | 0.0 | 0.0 | 0.00 | 0.00 | 0.00 | 60 | 1015.0 |
| 20260504011418 | 7 | 47 | 0.0 | 3.2 | 0.00 | 0.00 | 0.00 | 58 | 1014.9 |
| 20260504010919 | 7 | 47 | 0.0 | 3.2 | 0.00 | 0.00 | 0.00 | 57 | 1014.9 |
| 20260504005906 | 7 | 310 | 0.0 | 3.2 | 0.00 | 0.00 | 0.00 | 58 | 1014.9 |
| 20260504005406 | 8 | 300 | 0.0 | 3.2 | 0.00 | 0.00 | 0.00 | 57 | 1014.9 |
| 20260504004912 | 9 | 300 | 0.0 | 0.0 | 0.00 | 0.00 | 0.00 | 51 | 1014.9 |
| 20260504003402 | 10 | 302 | 0.0 | 1.6 | 0.00 | 0.00 | 0.00 | 46 | 1014.8 |
| 20260504002904 | 12 | 302 | 0.0 | 1.6 | 0.00 | 0.00 | 0.00 | 37 | 1014.8 |
| 20260504002403 | 12 | 300 | 0.0 | 3.2 | 0.00 | 0.00 | 0.00 | 37 | 1014.9 |
| 20260504001903 | 12 | 302 | 1.6 | 3.2 | 0.00 | 0.00 | 0.00 | 37 | 1014.8 |
| 20260504001403 | 12 | 309 | 1.6 | 3.2 | 0.00 | 0.00 | 0.00 | 38 | 1014.8 |
| 20260504000903 | 12 | 300 | 1.6 | 3.2 | 0.00 | 0.00 | 0.00 | 37 | 1014.9 |
| 20260504000403 | 12 | 283 | 0.0 | 3.2 | 0.00 | 0.00 | 0.00 | 37 | 1014.9 |
| 20260503235902 | 13 | 282 | 0.0 | 3.2 | 0.00 | 0.00 | 0.00 | 38 | 1014.8 |
| 20260503235402 | 13 | 271 | 0.0 | 6.4 | 0.00 | 0.00 | 0.00 | 36 | 1014.8 |
| 20260503234903 | 13 | 279 | 1.6 | 6.4 | 0.00 | 0.00 | 0.00 | 36 | 1014.8 |
| 20260503233900 | 14 | 269 | 1.6 | 6.4 | 0.00 | 0.00 | 0.00 | 34 | 1014.7 |
| 20260503233402 | 14 | 282 | 1.6 | 8.0 | 0.00 | 0.00 | 0.00 | 34 | 1014.7 |
| 20260503232856 | 15 | 275 | 3.2 | 8.0 | 0.00 | 0.00 | 0.00 | 36 | 1014.6 |
| 20260503231351 | 15 | 305 | 1.6 | 17.7 | 0.00 | 0.00 | 0.00 | 33 | 1014.4 |
| 20260503230844 | 15 | 0 | 8.0 | 17.7 | 0.00 | 0.00 | 0.00 | 30 | 1014.5 |
| 20260503225841 | 15 | 0 | 4.8 | 9.7 | 0.00 | 0.00 | 0.00 | 30 | 1014.5 |
| 20260503225342 | 16 | 343 | 3.2 | 8.0 | 0.00 | 0.00 | 0.00 | 32 | 1014.5 |
| 20260503224839 | 16 | 293 | 4.8 | 14.5 | 0.00 | 0.00 | 0.00 | 30 | 1014.5 |
| 20260503224338 | 16 | 351 | 4.8 | 14.5 | 0.00 | 0.00 | 0.00 | 30 | 1014.5 |
| 20260503223840 | 16 | 292 | 3.2 | 8.0 | 0.00 | 0.00 | 0.00 | 31 | 1014.4 |
| 20260503223338 | 16 | 221 | 3.2 | 16.1 | 0.00 | 0.00 | 0.00 | 30 | 1014.3 |
| 20260503222838 | 16 | 255 | 6.4 | 16.1 | 0.00 | 0.00 | 0.00 | 29 | 1014.3 |
| 20260503222338 | 16 | 261 | 3.2 | 9.7 | 0.00 | 0.00 | 0.00 | 29 | 1014.4 |
| 20260503221836 | 16 | 289 | 3.2 | 11.3 | 0.00 | 0.00 | 0.00 | 31 | 1014.6 |
| 20260503221332 | 16 | 292 | 6.4 | 11.3 | 0.00 | 0.00 | 0.00 | 29 | 1014.5 |
| 20260503220832 | 16 | 316 | 6.4 | 16.1 | 0.00 | 0.00 | 0.00 | 30 | 1014.5 |
| 20260503220331 | 16 | 283 | 8.0 | 16.1 | 0.00 | 0.00 | 0.00 | 31 | 1014.6 |
| 20260503215331 | 16 | 259 | 1.6 | 17.7 | 0.00 | 0.00 | 0.00 | 31 | 1014.6 |
| 20260503214320 | 16 | 272 | 9.7 | 19.3 | 0.00 | 0.00 | 0.00 | 29 | 1014.7 |
| 20260503213819 | 16 | 4 | 9.7 | 19.3 | 0.00 | 0.00 | 0.00 | 28 | 1014.5 |
| 20260503213318 | 16 | 344 | 8.0 | 19.3 | 0.00 | 0.00 | 0.00 | 30 | 1014.6 |
| 20260503212320 | 17 | 296 | 11.3 | 20.9 | 0.00 | 0.00 | 0.00 | 30 | 1014.6 |
| 20260503211819 | 17 | 320 | 6.4 | 14.5 | 0.00 | 0.00 | 0.00 | 31 | 1014.6 |
| 20260503211319 | 17 | 279 | 4.8 | 16.1 | 0.00 | 0.00 | 0.00 | 31 | 1014.6 |
| 20260503210818 | 17 | 309 | 6.4 | 16.1 | 0.00 | 0.00 | 0.00 | 29 | 1014.6 |
| 20260503210319 | 16 | 278 | 4.8 | 17.7 | 0.00 | 0.00 | 0.00 | 29 | 1014.6 |
| 20260503205819 | 16 | 0 | 9.7 | 17.7 | 0.00 | 0.00 | 0.00 | 28 | 1014.8 |
| 20260503205318 | 17 | 0 | 8.0 | 17.7 | 0.00 | 0.00 | 0.00 | 31 | 1014.8 |
| 20260503204820 | 17 | 279 | 8.0 | 24.1 | 0.00 | 0.00 | 0.00 | 31 | 1014.7 |
| 20260503204318 | 16 | 264 | 9.7 | 24.1 | 0.00 | 0.00 | 0.00 | 28 | 1014.7 |
| 20260503203819 | 16 | 0 | 6.4 | 17.7 | 0.00 | 0.00 | 0.00 | 30 | 1014.7 |
| 20260503202818 | 17 | 269 | 6.4 | 16.1 | 0.00 | 0.00 | 0.00 | 30 | 1014.8 |
| 20260503201818 | 16 | 0 | 9.7 | 22.5 | 0.00 | 0.00 | 0.00 | 30 | 1014.9 |
| 20260503201319 | 16 | 240 | 6.4 | 19.3 | 0.00 | 0.00 | 0.00 | 28 | 1015.1 |
| 20260503200818 | 17 | 286 | 6.4 | 14.5 | 0.00 | 0.00 | 0.00 | 29 | 1015.1 |
| 20260503200320 | 16 | 305 | 3.2 | 17.7 | 0.00 | 0.00 | 0.00 | 29 | 1015.0 |
| 20260503195819 | 16 | 0 | 3.2 | 19.3 | 0.00 | 0.00 | 0.00 | 34 | 1015.0 |
| 20260503195318 | 17 | 0 | 11.3 | 19.3 | 0.00 | 0.00 | 0.00 | 34 | 1015.1 |
| 20260503194819 | 16 | 0 | 9.7 | 16.1 | 0.00 | 0.00 | 0.00 | 33 | 1015.2 |
| 20260503193820 | 16 | 306 | 6.4 | 22.5 | 0.00 | 0.00 | 0.00 | 30 | 1015.4 |
| 20260503193319 | 17 | 0 | 9.7 | 22.5 | 0.00 | 0.00 | 0.00 | 28 | 1015.6 |
| 20260503192818 | 16 | 292 | 9.7 | 14.5 | 0.00 | 0.00 | 0.00 | 28 | 1015.6 |
| 20260503192318 | 15 | 257 | 3.2 | 20.9 | 0.00 | 0.00 | 0.00 | 28 | 1015.6 |
| 20260503191819 | 16 | 0 | 8.0 | 20.9 | 0.00 | 0.00 | 0.00 | 30 | 1015.8 |
| 20260503191318 | 16 | 258 | 9.7 | 19.3 | 0.00 | 0.00 | 0.00 | 32 | 1015.9 |
| 20260503190819 | 16 | 0 | 8.0 | 19.3 | 0.00 | 0.00 | 0.00 | 29 | 1015.8 |
| 20260503190320 | 16 | 0 | 4.8 | 17.7 | 0.00 | 0.00 | 0.00 | 29 | 1015.8 |
| 20260503185818 | 16 | 25 | 6.4 | 22.5 | 0.00 | 0.00 | 0.00 | 30 | 1016.0 |
| 20260503185320 | 16 | 0 | 8.0 | 22.5 | 0.00 | 0.00 | 0.00 | 30 | 1016.3 |
| 20260503184820 | 16 | 0 | 9.7 | 19.3 | 0.00 | 0.00 | 0.00 | 31 | 1016.2 |
| 20260503184318 | 16 | 327 | 8.0 | 19.3 | 0.00 | 0.00 | 0.00 | 30 | 1016.2 |
| 20260503183818 | 16 | 0 | 8.0 | 17.7 | 0.00 | 0.00 | 0.00 | 32 | 1016.1 |
| 20260503183318 | 16 | 0 | 9.7 | 22.5 | 0.00 | 0.00 | 0.00 | 33 | 1016.4 |
| 20260503182820 | 16 | 347 | 11.3 | 22.5 | 0.00 | 0.00 | 0.00 | 34 | 1016.3 |
| 20260503182319 | 15 | 283 | 9.7 | 17.7 | 0.00 | 0.00 | 0.00 | 34 | 1016.3 |
| 20260503181820 | 15 | 245 | 4.8 | 11.3 | 0.00 | 0.00 | 0.00 | 33 | 1016.3 |
| 20260503180820 | 15 | 285 | 9.7 | 17.7 | 0.00 | 0.00 | 0.00 | 33 | 1016.4 |
| 20260503180319 | 15 | 275 | 8.0 | 17.7 | 0.00 | 0.00 | 0.00 | 34 | 1016.4 |
| 20260503175818 | 15 | 292 | 3.2 | 17.7 | 0.00 | 0.00 | 0.00 | 39 | 1016.4 |
| 20260503175318 | 15 | 329 | 9.7 | 19.3 | 0.00 | 0.00 | 0.00 | 33 | 1016.6 |
| 20260503174819 | 15 | 358 | 6.4 | 19.3 | 0.00 | 0.00 | 0.00 | 31 | 1016.6 |
| 20260503174319 | 15 | 296 | 9.7 | 16.1 | 0.00 | 0.00 | 0.00 | 33 | 1016.6 |
| 20260503173319 | 13 | 292 | 3.2 | 17.7 | 0.00 | 0.00 | 0.00 | 34 | 1016.6 |
| 20260503172816 | 15 | 276 | 6.4 | 16.1 | 0.00 | 0.00 | 0.00 | 33 | 1016.8 |
| 20260503172310 | 14 | 0 | 6.4 | 20.9 | 0.00 | 0.00 | 0.00 | 36 | 1017.0 |
| 20260503171804 | 15 | 261 | 8.0 | 20.9 | 0.00 | 0.00 | 0.00 | 36 | 1017.0 |
| 20260503171302 | 14 | 231 | 6.4 | 19.3 | 0.00 | 0.00 | 0.00 | 34 | 1017.0 |
| 20260503150726 | 12 | 309 | 8.0 | 19.3 | 0.00 | 0.00 | 0.00 | 40 | 1018.2 |
| 20260503150223 | 12 | 290 | 8.0 | 20.9 | 0.00 | 0.00 | 0.00 | 41 | 1018.0 |
| 20260503140217 | 10 | 338 | 9.7 | 22.5 | 0.00 | 0.00 | 0.00 | 44 | 1018.3 |
| 20260503130716 | 8 | 0 | 9.7 | 27.4 | 0.00 | 0.00 | 0.00 | 48 | 1018.2 |
| 20260503130214 | 8 | 0 | 11.3 | 27.4 | 0.00 | 0.00 | 0.00 | 48 | 1018.2 |
| 20260503110656 | 5 | 0 | 0.0 | 6.4 | 0.00 | 0.00 | 0.00 | 61 | 1017.4 |
| 20260503100133 | 3 | 313 | 1.6 | 3.2 | 0.00 | 0.00 | 0.00 | 69 | 1016.4 |